Regional Weather Roundup
Issued by NWS

Home | Current Version | Previous Version | Text Only | Print | Product List | Glossary Off
Versions: 1 2 3 4 5 6 7 8 9 10 11 12 13 14 15 16 17 18 19 20 21 22 23 24 25 26 27 28 29 30 31 32 33 34 35 36 37 38 39 40 41 42 43 44 45 46 47 48 49 50

000
ASUS43 KFSD 042202
RWRSD

WEATHER ROUNDUP FOR SOUTH DAKOTA
NATIONAL WEATHER SERVICE SIOUX FALLS SD
500 PM CDT WED MAY 04 2016

NOTE: "FAIR" INDICATES FEW OR NO CLOUDS BELOW 12,000 FEET WITH NO
SIGNIFICANT WEATHER AND/OR OBSTRUCTIONS TO VISIBILITY.


SDZ001>005-009-010-012>017-042300-
NORTHWEST AND NORTH CENTRAL SOUTH DAKOTA

CITY           SKY/WX    TMP DP  RH WIND       PRES   REMARKS
BUFFALO          N/A     79  36  21 S18       29.96F
FAITH            N/A     76  42  29 SE6       30.04F
MOBRIDGE       SUNNY     76  42  29 SE8       30.01F
$$

SDZ012>016-024>037-041>051-057-063-072>074-042300-
SOUTHWEST AND SOUTH CENTRAL SOUTH DAKOTA

CITY           SKY/WX    TMP DP  RH WIND       PRES   REMARKS
RAPID CTY ARPT SUNNY     76  43  30 S14       30.06F
PIERRE         SUNNY     73  36  25 VRB3      30.04F
CUSTER         MOSUNNY   68  31  25 W9G17     30.15F
PHILIP         SUNNY     76  44  32 SW5       30.05F
PINE RIDGE     SUNNY     75  31  19 CALM      30.08F
WINNER         FAIR      73  37  27 N6        30.07F
$$

SDZ004>011-016>023-039-040-042300-
NORTHEAST SOUTH DAKOTA

CITY           SKY/WX    TMP DP  RH WIND       PRES   REMARKS
ABERDEEN       SUNNY     73  31  21 N5        30.02F
WATERTOWN      SUNNY     68  29  23 NW16G22   30.02F
BROOKINGS      SUNNY     68  34  28 N13       30.01S
SISSETON         N/A     71  27  19 N10       30.00F
$$

SDZ017-020-022-023-036>040-048>070-042300-
SOUTHEAST SOUTH DAKOTA

CITY           SKY/WX    TMP DP  RH WIND       PRES   REMARKS
SIOUX FALLS    MOSUNNY   68  36  30 N17       30.00F
HURON          SUNNY     71  34  25 N7        30.03F
MITCHELL       SUNNY     69  34  27 NW13      30.05F
YANKTON        SUNNY     66  36  32 NW12      30.03F
$$

ABBREVIATIONS USED IN REMARKS
   TC - TEMPERATURE IN CELSIUS
  WCI - WIND CHILL INDEX
   HX - HEAT INDEX
  VSB - VISIBILITY





USA.gov is the U.S. government's official web portal to all federal, state and local government web resources and services.